Jordan, MT

2:29 AM MDT on May 23, 2017 (GMT -0600)
Jordan

Weather History for KJDN - July, 2014

Change the Weather History Date:

Sunday, July 13, 2014

  Actual Average Record
Temperature  
Mean Temperature 70 °F 70 °F  
Max Temperature 88 °F 85 °F 102 °F (2002)
Min Temperature 51 °F 54 °F 41 °F (1971)
Degree Days  
Heating Degree Days 0 1  
Month to date heating degree days 0 14  
Since 1 June heating degree days 130 139  
Since 1 July heating degree days 0 14  
Cooling Degree Days 5 6  
Month to date cooling degree days 98 59  
Year to date cooling degree days 148 113  
Since 1 June cooling degree days 123 107  
Growing Degree Days 19 (Base 50)    
Moisture  
Dew Point 46 °F    
Average Humidity 50    
Maximum Humidity 77    
Minimum Humidity 23    
Precipitation  
Precipitation 0.00 in 0.06 in 0.83 in (1993)
Month to date precipitation 0.35 1.05  
Year to date precipitation 5.31 7.91  
Snow  
Snow 0.00 in - - ()
Month to date snowfall 0.0  
Since 1 June snowfall 0.0  
Since 1 July snowfall 0.0  
Snow Depth 0.00 in    
Sea Level Pressure  
Sea Level Pressure 30.16 in    
Wind  
Wind Speed 9 mph (North)    
Max Wind Speed 24 mph    
Max Gust Speed 36 mph    
T = Trace of Precipitation, MM = Missing Value Source: NWS Daily Summary

Daily Weather History Graph

Daily Weather History Graph

Search for Another Location

Airport or City:

Trip Planner

Search our weather history database for the weather conditions in past years. The results will help you decide how hot, cold, wet, or windy it might be!

Date:

Astronomy

Jul. 13, 2014 Rise Set
Actual Time 5:24 AM MDT 9:01 PM MDT
Civil Twilight 4:46 AM MDT 9:40 PM MDT
Nautical Twilight 3:54 AM MDT 10:31 PM MDT
Astronomical Twilight 2:42 AM MDT 11:42 PM MDT
Moon 9:39 PM MDT (7/13) 7:08 AM MDT (7/13)
Length of Visible Light 16h 54m
Length of Day
15h 37m
Full, 98% of the Moon is Illuminated
Jul 13
Full
Jul 18
Last Quarter
Jul 26
New
Aug 3
First Quarter
Aug 10
Full

Hourly Weather History & Observations

Time (MDT) Temp. Dew Point Humidity Pressure Visibility Wind Dir Wind Speed Gust Speed Precip Events Conditions
12:48 AM 55.9 °F 44.1 °F 64% 30.15 in - WNW 4.6 mph - N/A   Unknown
1:48 AM 55.9 °F 44.1 °F 64% 30.15 in - West 4.6 mph - N/A   Unknown
2:48 AM 55.9 °F 44.1 °F 64% 30.15 in - WNW 3.5 mph - N/A   Unknown
3:48 AM 54.0 °F 44.1 °F 69% 30.16 in - WSW 3.5 mph - N/A   Unknown
4:48 AM 51.1 °F 44.1 °F 77% 30.17 in - Calm Calm - N/A   Unknown
5:48 AM 51.1 °F 44.1 °F 77% 30.18 in - West 4.6 mph - N/A   Unknown
6:48 AM 57.0 °F 45.0 °F 64% 30.19 in - Calm Calm - N/A   Unknown
7:48 AM 66.0 °F 51.1 °F 59% 30.19 in - ENE 8.1 mph - N/A   Unknown
8:48 AM 70.0 °F 48.9 °F 47% 30.19 in - ENE 6.9 mph - N/A   Unknown
9:48 AM 73.9 °F 48.9 °F 41% 30.19 in - ENE 9.2 mph - N/A   Unknown
10:48 AM 78.1 °F 48.0 °F 35% 30.17 in - Calm Calm - N/A   Unknown
11:48 AM 81.0 °F 46.0 °F 29% 30.15 in - WNW 8.1 mph 19.6 mph N/A   Unknown
12:48 PM 84.9 °F 45.0 °F 25% 30.15 in - NNW 17.3 mph - N/A   Unknown
1:48 PM 84.9 °F 46.0 °F 26% 30.14 in - NNW 8.1 mph 21.9 mph N/A   Unknown
2:48 PM 86.0 °F 45.0 °F 24% 30.14 in - NNW 16.1 mph 26.5 mph N/A   Unknown
3:48 PM 87.1 °F 46.0 °F 24% 30.13 in - North 11.5 mph 25.3 mph N/A   Unknown
4:48 PM 86.0 °F 46.9 °F 26% 30.13 in - North 16.1 mph 24.2 mph N/A   Unknown
5:48 PM 84.0 °F 48.0 °F 28% 30.13 in - NNW 16.1 mph 27.6 mph N/A   Unknown
6:48 PM 82.9 °F 48.0 °F 29% 30.12 in - North 16.1 mph 25.3 mph N/A   Unknown
7:48 PM 80.1 °F 48.0 °F 32% 30.12 in - North 17.3 mph - N/A   Unknown
8:48 PM 75.9 °F 46.0 °F 35% 30.14 in - North 12.7 mph - N/A   Unknown
9:48 PM 66.0 °F 45.0 °F 47% 30.18 in - NNE 5.8 mph - N/A   Unknown
10:48 PM 66.9 °F 42.1 °F 40% 30.20 in - NE 12.7 mph - N/A   Unknown
11:48 PM 64.0 °F 37.9 °F 38% 30.22 in - NE 11.5 mph - N/A   Unknown